owner,sensor,date,latitude,longitude,vertical_datum,sea_water_temperature,qcFlag 
Scripps,ioos:station:wmo:42099:1,2014-01-01T00:22:00Z,27.3400,-84.2750,0.0,23.45,2 
Scripps,ioos:station:wmo:42099:1,2014-01-01T00:52:00Z,27.3400,-84.2750,0.0,23.45,2 
Scripps,ioos:station:wmo:42099:1,2014-01-01T01:22:00Z,27.3400,-84.2750,0.0,23.45,2 
Scripps,ioos:station:wmo:42099:1,2014-01-01T01:52:00Z,27.3400,-84.2750,0.0,23.45,2 
Scripps,ioos:station:wmo:42099:1,2014-01-01T02:22:00Z,27.3400,-84.2750,0.0,23.4,2 
Scripps,ioos:station:wmo:42099:1,2014-01-01T02:52:00Z,27.3400,-84.2750,0.0,23.45,2 
Scripps,ioos:station:wmo:42099:1,2014-01-01T03:22:00Z,27.3400,-84.2750,0.0,23.45,2 
Scripps,ioos:station:wmo:42099:1,2014-01-01T03:52:00Z,27.3400,-84.2750,0.0,23.4,2 
Scripps,ioos:station:wmo:42099:1,2014-01-01T04:22:00Z,27.3400,-84.2750,0.0,23.4,2 
Scripps,ioos:station:wmo:42099:1,2014-01-01T04:52:00Z,27.3400,-84.2750,0.0,23.4,2 
Scripps,ioos:station:wmo:42099:1,2014-01-01T05:22:00Z,27.3400,-84.2750,0.0,23.4,2 
Scripps,ioos:station:wmo:42099:1,2014-01-01T05:52:00Z,27.3400,-84.2750,0.0,23.4,2 
Scripps,ioos:station:wmo:42099:1,2014-01-01T06:22:00Z,27.3400,-84.2750,0.0,23.4,2 
Scripps,ioos:station:wmo:42099:1,2014-01-01T06:52:00Z,27.3400,-84.2750,0.0,23.4,2 
Scripps,ioos:station:wmo:42099:1,2014-01-01T07:22:00Z,27.3400,-84.2750,0.0,23.4,2 
Scripps,ioos:station:wmo:42099:1,2014-01-01T07:52:00Z,27.3400,-84.2750,0.0,23.35,2 
Scripps,ioos:station:wmo:42099:1,2014-01-01T08:22:00Z,27.3400,-84.2750,0.0,23.35,2 
Scripps,ioos:station:wmo:42099:1,2014-01-01T08:52:00Z,27.3400,-84.2750,0.0,23.35,2 
Scripps,ioos:station:wmo:42099:1,2014-01-01T09:22:00Z,27.3400,-84.2750,0.0,23.35,2 
Scripps,ioos:station:wmo:42099:1,2014-01-01T09:52:00Z,27.3400,-84.2750,0.0,23.35,2 
Scripps,ioos:station:wmo:42099:1,2014-01-01T10:22:00Z,27.3400,-84.2750,0.0,23.35,2 
Scripps,ioos:station:wmo:42099:1,2014-01-01T10:52:00Z,27.3400,-84.2750,0.0,23.35,2 
Scripps,ioos:station:wmo:42099:1,2014-01-01T11:22:00Z,27.3400,-84.2750,0.0,23.35,2 
Scripps,ioos:station:wmo:42099:1,2014-01-01T11:52:00Z,27.3400,-84.2750,0.0,23.4,2 
Scripps,ioos:station:wmo:42099:1,2014-01-01T12:22:00Z,27.3400,-84.2750,0.0,23.35,2 
Scripps,ioos:station:wmo:42099:1,2014-01-01T12:52:00Z,27.3400,-84.2750,0.0,23.35,2 
Scripps,ioos:station:wmo:42099:1,2014-01-01T13:22:00Z,27.3400,-84.2750,0.0,23.4,2 
Scripps,ioos:station:wmo:42099:1,2014-01-01T13:52:00Z,27.3400,-84.2750,0.0,23.4,2 
Scripps,ioos:station:wmo:42099:1,2014-01-01T14:22:00Z,27.3400,-84.2750,0.0,23.4,2 
Scripps,ioos:station:wmo:42099:1,2014-01-01T14:52:00Z,27.3400,-84.2750,0.0,23.4,2 
Scripps,ioos:station:wmo:42099:1,2014-01-01T15:22:00Z,27.3400,-84.2750,0.0,23.4,2 
Scripps,ioos:station:wmo:42099:1,2014-01-01T15:52:00Z,27.3400,-84.2750,0.0,23.35,2 
Scripps,ioos:station:wmo:42099:1,2014-01-01T16:22:00Z,27.3400,-84.2750,0.0,23.35,2 
Scripps,ioos:station:wmo:42099:1,2014-01-01T16:52:00Z,27.3400,-84.2750,0.0,23.35,2 
Scripps,ioos:station:wmo:42099:1,2014-01-01T17:22:00Z,27.3400,-84.2750,0.0,23.35,2 
Scripps,ioos:station:wmo:42099:1,2014-01-01T17:52:00Z,27.3400,-84.2750,0.0,23.35,2 
Scripps,ioos:station:wmo:42099:1,2014-01-01T18:22:00Z,27.3400,-84.2750,0.0,23.35,2 
Scripps,ioos:station:wmo:42099:1,2014-01-01T18:52:00Z,27.3400,-84.2750,0.0,23.35,2 
Scripps,ioos:station:wmo:42099:1,2014-01-01T19:22:00Z,27.3400,-84.2750,0.0,23.35,2 
Scripps,ioos:station:wmo:42099:1,2014-01-01T19:52:00Z,27.3400,-84.2750,0.0,23.35,2 
Scripps,ioos:station:wmo:42099:1,2014-01-01T20:22:00Z,27.3400,-84.2750,0.0,23.35,2 
Scripps,ioos:station:wmo:42099:1,2014-01-01T20:52:00Z,27.3400,-84.2750,0.0,23.35,2 
Scripps,ioos:station:wmo:42099:1,2014-01-01T21:22:00Z,27.3400,-84.2750,0.0,23.35,2 
Scripps,ioos:station:wmo:42099:1,2014-01-01T21:52:00Z,27.3400,-84.2750,0.0,23.35,2 
Scripps,ioos:station:wmo:42099:1,2014-01-01T22:22:00Z,27.3400,-84.2750,0.0,23.3,2 
Scripps,ioos:station:wmo:42099:1,2014-01-01T22:52:00Z,27.3400,-84.2750,0.0,23.3,2 
Scripps,ioos:station:wmo:42099:1,2014-01-01T23:22:00Z,27.3400,-84.2750,0.0,23.3,2 
Scripps,ioos:station:wmo:42099:1,2014-01-01T23:52:00Z,27.3400,-84.2750,0.0,23.3,2 
Scripps,ioos:station:wmo:42099:1,2014-01-02T00:22:00Z,27.3400,-84.2750,0.0,23.3,2 
Scripps,ioos:station:wmo:42099:1,2014-01-02T00:52:00Z,27.3400,-84.2750,0.0,23.3,2 
Scripps,ioos:station:wmo:42099:1,2014-01-02T01:22:00Z,27.3400,-84.2750,0.0,23.3,2 
Scripps,ioos:station:wmo:42099:1,2014-01-02T01:52:00Z,27.3400,-84.2750,0.0,23.3,2 
Scripps,ioos:station:wmo:42099:1,2014-01-02T02:22:00Z,27.3400,-84.2750,0.0,23.3,2 
Scripps,ioos:station:wmo:42099:1,2014-01-02T02:52:00Z,27.3400,-84.2750,0.0,23.3,2 
Scripps,ioos:station:wmo:42099:1,2014-01-02T03:22:00Z,27.3400,-84.2750,0.0,23.3,2 
Scripps,ioos:station:wmo:42099:1,2014-01-02T03:52:00Z,27.3400,-84.2750,0.0,23.3,2 
Scripps,ioos:station:wmo:42099:1,2014-01-02T04:22:00Z,27.3400,-84.2750,0.0,23.25,2 
Scripps,ioos:station:wmo:42099:1,2014-01-02T04:52:00Z,27.3400,-84.2750,0.0,23.3,2 
Scripps,ioos:station:wmo:42099:1,2014-01-02T05:22:00Z,27.3400,-84.2750,0.0,23.3,2 
Scripps,ioos:station:wmo:42099:1,2014-01-02T06:52:00Z,27.3400,-84.2750,0.0,23.25,2 
Scripps,ioos:station:wmo:42099:1,2014-01-02T07:22:00Z,27.3400,-84.2750,0.0,23.25,2 
Scripps,ioos:station:wmo:42099:1,2014-01-02T07:52:00Z,27.3400,-84.2750,0.0,23.25,2 
Scripps,ioos:station:wmo:42099:1,2014-01-02T08:22:00Z,27.3400,-84.2750,0.0,23.25,2 
Scripps,ioos:station:wmo:42099:1,2014-01-02T08:52:00Z,27.3400,-84.2750,0.0,23.25,2 
Scripps,ioos:station:wmo:42099:1,2014-01-02T09:22:00Z,27.3400,-84.2750,0.0,23.25,2 
Scripps,ioos:station:wmo:42099:1,2014-01-02T09:52:00Z,27.3400,-84.2750,0.0,23.25,2 
Scripps,ioos:station:wmo:42099:1,2014-01-02T10:52:00Z,27.3400,-84.2750,0.0,23.25,2 
Scripps,ioos:station:wmo:42099:1,2014-01-02T11:22:00Z,27.3400,-84.2750,0.0,23.25,2 
Scripps,ioos:station:wmo:42099:1,2014-01-02T11:52:00Z,27.3400,-84.2750,0.0,23.25,2 
Scripps,ioos:station:wmo:42099:1,2014-01-02T12:22:00Z,27.3400,-84.2750,0.0,23.25,2 
Scripps,ioos:station:wmo:42099:1,2014-01-02T12:52:00Z,27.3400,-84.2750,0.0,23.25,2 
Scripps,ioos:station:wmo:42099:1,2014-01-02T13:22:00Z,27.3400,-84.2750,0.0,23.25,2 
Scripps,ioos:station:wmo:42099:1,2014-01-02T13:52:00Z,27.3400,-84.2750,0.0,23.25,2 
Scripps,ioos:station:wmo:42099:1,2014-01-02T14:22:00Z,27.3400,-84.2750,0.0,23.25,2 
Scripps,ioos:station:wmo:42099:1,2014-01-02T14:52:00Z,27.3400,-84.2750,0.0,23.25,2 
Scripps,ioos:station:wmo:42099:1,2014-01-02T15:22:00Z,27.3400,-84.2750,0.0,23.3,2 
Scripps,ioos:station:wmo:42099:1,2014-01-02T15:52:00Z,27.3400,-84.2750,0.0,23.3,2 
Scripps,ioos:station:wmo:42099:1,2014-01-02T16:22:00Z,27.3400,-84.2750,0.0,23.3,2 
Scripps,ioos:station:wmo:42099:1,2014-01-02T16:52:00Z,27.3400,-84.2750,0.0,23.3,2 
Scripps,ioos:station:wmo:42099:1,2014-01-02T17:22:00Z,27.3400,-84.2750,0.0,23.3,2 
Scripps,ioos:station:wmo:42099:1,2014-01-02T17:52:00Z,27.3400,-84.2750,0.0,23.3,2 
Scripps,ioos:station:wmo:42099:1,2014-01-02T18:22:00Z,27.3400,-84.2750,0.0,23.3,2 
Scripps,ioos:station:wmo:42099:1,2014-01-02T18:52:00Z,27.3400,-84.2750,0.0,23.3,2 
Scripps,ioos:station:wmo:42099:1,2014-01-02T19:22:00Z,27.3400,-84.2750,0.0,23.25,2 
Scripps,ioos:station:wmo:42099:1,2014-01-02T19:52:00Z,27.3400,-84.2750,0.0,23.15,2 
Scripps,ioos:station:wmo:42099:1,2014-01-02T20:22:00Z,27.3400,-84.2750,0.0,23.15,2 
Scripps,ioos:station:wmo:42099:1,2014-01-02T20:52:00Z,27.3400,-84.2750,0.0,23.1,2 
Scripps,ioos:station:wmo:42099:1,2014-01-02T21:22:00Z,27.3400,-84.2750,0.0,23.15,2 
Scripps,ioos:station:wmo:42099:1,2014-01-02T21:52:00Z,27.3400,-84.2750,0.0,23.15,2 
Scripps,ioos:station:wmo:42099:1,2014-01-02T22:52:00Z,27.3400,-84.2750,0.0,23.1,2 
Scripps,ioos:station:wmo:42099:1,2014-01-02T23:22:00Z,27.3400,-84.2750,0.0,23.1,2 
Scripps,ioos:station:wmo:42099:1,2014-01-02T23:52:00Z,27.3400,-84.2750,0.0,23.1,2 
Scripps,ioos:station:wmo:42099:1,2014-01-03T00:22:00Z,27.3400,-84.2750,0.0,23.05,2 
Scripps,ioos:station:wmo:42099:1,2014-01-03T00:52:00Z,27.3400,-84.2750,0.0,23.05,2 
Scripps,ioos:station:wmo:42099:1,2014-01-03T01:52:00Z,27.3400,-84.2750,0.0,23.0,2 
Scripps,ioos:station:wmo:42099:1,2014-01-03T02:22:00Z,27.3400,-84.2750,0.0,23.0,2 
Scripps,ioos:station:wmo:42099:1,2014-01-03T02:52:00Z,27.3400,-84.2750,0.0,22.95,2 
Scripps,ioos:station:wmo:42099:1,2014-01-03T03:22:00Z,27.3400,-84.2750,0.0,22.95,2 
Scripps,ioos:station:wmo:42099:1,2014-01-03T03:52:00Z,27.3400,-84.2750,0.0,22.95,2 
Scripps,ioos:station:wmo:42099:1,2014-01-03T04:22:00Z,27.3400,-84.2750,0.0,22.95,2 
Scripps,ioos:station:wmo:42099:1,2014-01-03T09:22:00Z,27.3400,-84.2750,0.0,22.8,2 
Scripps,ioos:station:wmo:42099:1,2014-01-03T09:52:00Z,27.3400,-84.2750,0.0,22.8,2 
Scripps,ioos:station:wmo:42099:1,2014-01-03T10:22:00Z,27.3400,-84.2750,0.0,22.8,2 
Scripps,ioos:station:wmo:42099:1,2014-01-03T10:52:00Z,27.3400,-84.2750,0.0,22.8,2 
Scripps,ioos:station:wmo:42099:1,2014-01-03T11:22:00Z,27.3400,-84.2750,0.0,22.8,2 
Scripps,ioos:station:wmo:42099:1,2014-01-03T11:52:00Z,27.3400,-84.2750,0.0,22.8,2 
Scripps,ioos:station:wmo:42099:1,2014-01-03T12:22:00Z,27.3400,-84.2750,0.0,22.8,2 
Scripps,ioos:station:wmo:42099:1,2014-01-03T12:52:00Z,27.3400,-84.2750,0.0,22.8,2 
Scripps,ioos:station:wmo:42099:1,2014-01-03T13:22:00Z,27.3400,-84.2750,0.0,22.8,2 
Scripps,ioos:station:wmo:42099:1,2014-01-03T13:52:00Z,27.3400,-84.2750,0.0,22.75,2 
Scripps,ioos:station:wmo:42099:1,2014-01-03T14:22:00Z,27.3400,-84.2750,0.0,22.8,2 
Scripps,ioos:station:wmo:42099:1,2014-01-03T14:52:00Z,27.3400,-84.2750,0.0,22.8,2 
Scripps,ioos:station:wmo:42099:1,2014-01-03T15:22:00Z,27.3400,-84.2750,0.0,22.8,2 
Scripps,ioos:station:wmo:42099:1,2014-01-03T15:52:00Z,27.3400,-84.2750,0.0,22.75,2 
Scripps,ioos:station:wmo:42099:1,2014-01-03T16:22:00Z,27.3400,-84.2750,0.0,22.8,2 
Scripps,ioos:station:wmo:42099:1,2014-01-03T16:52:00Z,27.3400,-84.2750,0.0,22.75,2 
Scripps,ioos:station:wmo:42099:1,2014-01-03T17:22:00Z,27.3400,-84.2750,0.0,22.8,2 
Scripps,ioos:station:wmo:42099:1,2014-01-03T17:52:00Z,27.3400,-84.2750,0.0,22.8,2 
Scripps,ioos:station:wmo:42099:1,2014-01-03T18:22:00Z,27.3400,-84.2750,0.0,22.75,2 
Scripps,ioos:station:wmo:42099:1,2014-01-03T18:52:00Z,27.3400,-84.2750,0.0,22.75,2 
Scripps,ioos:station:wmo:42099:1,2014-01-03T19:22:00Z,27.3400,-84.2750,0.0,22.8,2 
Scripps,ioos:station:wmo:42099:1,2014-01-03T19:52:00Z,27.3400,-84.2750,0.0,22.8,2 
Scripps,ioos:station:wmo:42099:1,2014-01-03T20:22:00Z,27.3400,-84.2750,0.0,22.8,2 
Scripps,ioos:station:wmo:42099:1,2014-01-03T20:52:00Z,27.3400,-84.2750,0.0,22.8,2 
Scripps,ioos:station:wmo:42099:1,2014-01-03T21:22:00Z,27.3400,-84.2750,0.0,22.75,2 
Scripps,ioos:station:wmo:42099:1,2014-01-03T21:52:00Z,27.3400,-84.2750,0.0,22.75,2 
Scripps,ioos:station:wmo:42099:1,2014-01-03T22:22:00Z,27.3400,-84.2750,0.0,22.75,2 
Scripps,ioos:station:wmo:42099:1,2014-01-03T22:52:00Z,27.3400,-84.2750,0.0,22.75,2 
Scripps,ioos:station:wmo:42099:1,2014-01-03T23:22:00Z,27.3400,-84.2750,0.0,22.7,2 
Scripps,ioos:station:wmo:42099:1,2014-01-03T23:52:00Z,27.3400,-84.2750,0.0,22.75,2 
Scripps,ioos:station:wmo:42099:1,2014-01-04T00:22:00Z,27.3400,-84.2750,0.0,22.7,2 
Scripps,ioos:station:wmo:42099:1,2014-01-04T00:52:00Z,27.3400,-84.2750,0.0,22.7,2 
Scripps,ioos:station:wmo:42099:1,2014-01-04T01:22:00Z,27.3400,-84.2750,0.0,22.7,2 
Scripps,ioos:station:wmo:42099:1,2014-01-04T01:52:00Z,27.3400,-84.2750,0.0,22.7,2 
Scripps,ioos:station:wmo:42099:1,2014-01-04T02:22:00Z,27.3400,-84.2750,0.0,22.7,2 
Scripps,ioos:station:wmo:42099:1,2014-01-04T02:52:00Z,27.3400,-84.2750,0.0,22.7,2 
Scripps,ioos:station:wmo:42099:1,2014-01-04T03:22:00Z,27.3400,-84.2750,0.0,22.7,2 
Scripps,ioos:station:wmo:42099:1,2014-01-04T03:52:00Z,27.3400,-84.2750,0.0,22.7,2 
Scripps,ioos:station:wmo:42099:1,2014-01-04T04:22:00Z,27.3400,-84.2750,0.0,22.65,2 
Scripps,ioos:station:wmo:42099:1,2014-01-04T04:52:00Z,27.3400,-84.2750,0.0,22.65,2 
Scripps,ioos:station:wmo:42099:1,2014-01-04T05:22:00Z,27.3400,-84.2750,0.0,22.65,2 
Scripps,ioos:station:wmo:42099:1,2014-01-04T06:22:00Z,27.3400,-84.2750,0.0,22.65,2 
Scripps,ioos:station:wmo:42099:1,2014-01-04T06:52:00Z,27.3400,-84.2750,0.0,22.6,2 
Scripps,ioos:station:wmo:42099:1,2014-01-04T07:22:00Z,27.3400,-84.2750,0.0,22.6,2 
Scripps,ioos:station:wmo:42099:1,2014-01-04T08:22:00Z,27.3400,-84.2750,0.0,22.6,2 
Scripps,ioos:station:wmo:42099:1,2014-01-04T08:52:00Z,27.3400,-84.2750,0.0,22.6,2 
Scripps,ioos:station:wmo:42099:1,2014-01-04T09:22:00Z,27.3400,-84.2750,0.0,22.6,2 
Scripps,ioos:station:wmo:42099:1,2014-01-04T09:52:00Z,27.3400,-84.2750,0.0,22.6,2 
Scripps,ioos:station:wmo:42099:1,2014-01-04T10:22:00Z,27.3400,-84.2750,0.0,22.6,2 
Scripps,ioos:station:wmo:42099:1,2014-01-04T11:52:00Z,27.3400,-84.2750,0.0,22.55,2 
Scripps,ioos:station:wmo:42099:1,2014-01-04T12:52:00Z,27.3400,-84.2750,0.0,22.55,2 
Scripps,ioos:station:wmo:42099:1,2014-01-04T13:22:00Z,27.3400,-84.2750,0.0,22.55,2 
Scripps,ioos:station:wmo:42099:1,2014-01-04T13:52:00Z,27.3400,-84.2750,0.0,22.6,2 
Scripps,ioos:station:wmo:42099:1,2014-01-04T14:52:00Z,27.3400,-84.2750,0.0,22.55,2 
Scripps,ioos:station:wmo:42099:1,2014-01-04T15:22:00Z,27.3400,-84.2750,0.0,22.55,2 
Scripps,ioos:station:wmo:42099:1,2014-01-04T15:52:00Z,27.3400,-84.2750,0.0,22.5,2 
Scripps,ioos:station:wmo:42099:1,2014-01-04T16:22:00Z,27.3400,-84.2750,0.0,22.5,2 
Scripps,ioos:station:wmo:42099:1,2014-01-04T16:52:00Z,27.3400,-84.2750,0.0,22.5,2 
Scripps,ioos:station:wmo:42099:1,2014-01-04T17:22:00Z,27.3400,-84.2750,0.0,22.5,2 
Scripps,ioos:station:wmo:42099:1,2014-01-04T19:22:00Z,27.3400,-84.2750,0.0,22.5,2 
Scripps,ioos:station:wmo:42099:1,2014-01-04T19:52:00Z,27.3400,-84.2750,0.0,22.55,2 
Scripps,ioos:station:wmo:42099:1,2014-01-04T20:22:00Z,27.3400,-84.2750,0.0,22.55,2 
Scripps,ioos:station:wmo:42099:1,2014-01-04T20:52:00Z,27.3400,-84.2750,0.0,22.6,2 
Scripps,ioos:station:wmo:42099:1,2014-01-04T21:22:00Z,27.3400,-84.2750,0.0,22.6,2 
Scripps,ioos:station:wmo:42099:1,2014-01-04T21:52:00Z,27.3400,-84.2750,0.0,22.6,2 
Scripps,ioos:station:wmo:42099:1,2014-01-04T22:22:00Z,27.3400,-84.2750,0.0,22.55,2 
Scripps,ioos:station:wmo:42099:1,2014-01-04T22:52:00Z,27.3400,-84.2750,0.0,22.6,2 
Scripps,ioos:station:wmo:42099:1,2014-01-04T23:22:00Z,27.3400,-84.2750,0.0,22.6,2 
Scripps,ioos:station:wmo:42099:1,2014-01-04T23:52:00Z,27.3400,-84.2750,0.0,22.6,2 
Scripps,ioos:station:wmo:42099:1,2014-01-05T00:22:00Z,27.3400,-84.2750,0.0,22.55,2 
Scripps,ioos:station:wmo:42099:1,2014-01-05T00:52:00Z,27.3400,-84.2750,0.0,22.6,2 
Scripps,ioos:station:wmo:42099:1,2014-01-05T01:22:00Z,27.3400,-84.2750,0.0,22.6,2 
Scripps,ioos:station:wmo:42099:1,2014-01-05T01:52:00Z,27.3400,-84.2750,0.0,22.55,2 
Scripps,ioos:station:wmo:42099:1,2014-01-05T02:22:00Z,27.3400,-84.2750,0.0,22.6,2 
Scripps,ioos:station:wmo:42099:1,2014-01-05T02:52:00Z,27.3400,-84.2750,0.0,22.6,2 
Scripps,ioos:station:wmo:42099:1,2014-01-05T03:22:00Z,27.3400,-84.2750,0.0,22.6,2 
Scripps,ioos:station:wmo:42099:1,2014-01-05T03:52:00Z,27.3400,-84.2750,0.0,22.6,2 
Scripps,ioos:station:wmo:42099:1,2014-01-05T04:22:00Z,27.3400,-84.2750,0.0,22.6,2 
Scripps,ioos:station:wmo:42099:1,2014-01-05T04:52:00Z,27.3400,-84.2750,0.0,22.6,2 
Scripps,ioos:station:wmo:42099:1,2014-01-05T05:22:00Z,27.3400,-84.2750,0.0,22.6,2 
Scripps,ioos:station:wmo:42099:1,2014-01-05T06:22:00Z,27.3400,-84.2750,0.0,22.6,2 
Scripps,ioos:station:wmo:42099:1,2014-01-05T07:22:00Z,27.3400,-84.2750,0.0,22.6,2 
Scripps,ioos:station:wmo:42099:1,2014-01-05T07:52:00Z,27.3400,-84.2750,0.0,22.6,2 
Scripps,ioos:station:wmo:42099:1,2014-01-05T08:22:00Z,27.3400,-84.2750,0.0,22.6,2 
Scripps,ioos:station:wmo:42099:1,2014-01-05T08:52:00Z,27.3400,-84.2750,0.0,22.6,2 
Scripps,ioos:station:wmo:42099:1,2014-01-05T09:22:00Z,27.3400,-84.2750,0.0,22.6,2 
Scripps,ioos:station:wmo:42099:1,2014-01-05T09:52:00Z,27.3400,-84.2750,0.0,22.6,2 
Scripps,ioos:station:wmo:42099:1,2014-01-05T10:22:00Z,27.3400,-84.2750,0.0,22.6,2 
Scripps,ioos:station:wmo:42099:1,2014-01-05T10:52:00Z,27.3400,-84.2750,0.0,22.6,2 
Scripps,ioos:station:wmo:42099:1,2014-01-05T11:22:00Z,27.3400,-84.2750,0.0,22.6,2 
Scripps,ioos:station:wmo:42099:1,2014-01-05T11:52:00Z,27.3400,-84.2750,0.0,22.6,2 
Scripps,ioos:station:wmo:42099:1,2014-01-05T12:22:00Z,27.3400,-84.2750,0.0,22.6,2 
Scripps,ioos:station:wmo:42099:1,2014-01-05T12:52:00Z,27.3400,-84.2750,0.0,22.6,2 
Scripps,ioos:station:wmo:42099:1,2014-01-05T13:22:00Z,27.3400,-84.2750,0.0,22.6,2 
Scripps,ioos:station:wmo:42099:1,2014-01-05T13:52:00Z,27.3400,-84.2750,0.0,22.6,2 
Scripps,ioos:station:wmo:42099:1,2014-01-05T14:22:00Z,27.3400,-84.2750,0.0,22.6,2 
Scripps,ioos:station:wmo:42099:1,2014-01-05T14:52:00Z,27.3400,-84.2750,0.0,22.65,2 
Scripps,ioos:station:wmo:42099:1,2014-01-05T15:22:00Z,27.3400,-84.2750,0.0,22.65,2 
Scripps,ioos:station:wmo:42099:1,2014-01-05T15:52:00Z,27.3400,-84.2750,0.0,22.65,2 
Scripps,ioos:station:wmo:42099:1,2014-01-05T16:22:00Z,27.3400,-84.2750,0.0,22.75,2 
Scripps,ioos:station:wmo:42099:1,2014-01-05T16:52:00Z,27.3400,-84.2750,0.0,22.75,2 
Scripps,ioos:station:wmo:42099:1,2014-01-05T17:22:00Z,27.3400,-84.2750,0.0,22.8,2 
Scripps,ioos:station:wmo:42099:1,2014-01-05T17:52:00Z,27.3400,-84.2750,0.0,22.8,2 
Scripps,ioos:station:wmo:42099:1,2014-01-05T18:22:00Z,27.3400,-84.2750,0.0,22.85,2 
Scripps,ioos:station:wmo:42099:1,2014-01-05T18:52:00Z,27.3400,-84.2750,0.0,22.85,2 
Scripps,ioos:station:wmo:42099:1,2014-01-05T19:22:00Z,27.3400,-84.2750,0.0,22.85,2 
Scripps,ioos:station:wmo:42099:1,2014-01-05T19:52:00Z,27.3400,-84.2750,0.0,22.9,2 
Scripps,ioos:station:wmo:42099:1,2014-01-05T20:22:00Z,27.3400,-84.2750,0.0,22.95,2 
Scripps,ioos:station:wmo:42099:1,2014-01-05T20:52:00Z,27.3400,-84.2750,0.0,22.95,2 
Scripps,ioos:station:wmo:42099:1,2014-01-05T21:22:00Z,27.3400,-84.2750,0.0,22.9,2 
Scripps,ioos:station:wmo:42099:1,2014-01-05T21:52:00Z,27.3400,-84.2750,0.0,22.9,2 
Scripps,ioos:station:wmo:42099:1,2014-01-05T22:22:00Z,27.3400,-84.2750,0.0,22.85,2 
Scripps,ioos:station:wmo:42099:1,2014-01-05T22:52:00Z,27.3400,-84.2750,0.0,22.85,2 
Scripps,ioos:station:wmo:42099:1,2014-01-05T23:22:00Z,27.3400,-84.2750,0.0,22.85,2 
Scripps,ioos:station:wmo:42099:1,2014-01-05T23:52:00Z,27.3400,-84.2750,0.0,22.8,2 
Scripps,ioos:station:wmo:42099:1,2014-01-06T00:22:00Z,27.3400,-84.2750,0.0,22.8,2 
Scripps,ioos:station:wmo:42099:1,2014-01-06T00:52:00Z,27.3400,-84.2750,0.0,22.8,2 
Scripps,ioos:station:wmo:42099:1,2014-01-06T01:52:00Z,27.3400,-84.2750,0.0,22.75,2 
Scripps,ioos:station:wmo:42099:1,2014-01-06T02:22:00Z,27.3400,-84.2750,0.0,22.8,2 
Scripps,ioos:station:wmo:42099:1,2014-01-06T02:52:00Z,27.3400,-84.2750,0.0,22.8,2 
Scripps,ioos:station:wmo:42099:1,2014-01-06T03:22:00Z,27.3400,-84.2750,0.0,22.8,2 
Scripps,ioos:station:wmo:42099:1,2014-01-06T03:52:00Z,27.3400,-84.2750,0.0,22.85,2 
Scripps,ioos:station:wmo:42099:1,2014-01-06T04:22:00Z,27.3400,-84.2750,0.0,22.85,2 
Scripps,ioos:station:wmo:42099:1,2014-01-06T04:52:00Z,27.3400,-84.2750,0.0,22.85,2 
Scripps,ioos:station:wmo:42099:1,2014-01-06T05:22:00Z,27.3400,-84.2750,0.0,22.85,2 
Scripps,ioos:station:wmo:42099:1,2014-01-06T06:52:00Z,27.3400,-84.2750,0.0,22.8,2 
Scripps,ioos:station:wmo:42099:1,2014-01-06T07:22:00Z,27.3400,-84.2750,0.0,22.8,2 
Scripps,ioos:station:wmo:42099:1,2014-01-06T07:52:00Z,27.3400,-84.2750,0.0,22.75,2 
Scripps,ioos:station:wmo:42099:1,2014-01-06T08:22:00Z,27.3400,-84.2750,0.0,22.75,2 
Scripps,ioos:station:wmo:42099:1,2014-01-06T08:52:00Z,27.3400,-84.2750,0.0,22.7,2 
Scripps,ioos:station:wmo:42099:1,2014-01-06T09:22:00Z,27.3400,-84.2750,0.0,22.7,2 
Scripps,ioos:station:wmo:42099:1,2014-01-06T09:52:00Z,27.3400,-84.2750,0.0,22.7,2 
Scripps,ioos:station:wmo:42099:1,2014-01-06T10:22:00Z,27.3400,-84.2750,0.0,22.7,2 
Scripps,ioos:station:wmo:42099:1,2014-01-06T10:52:00Z,27.3400,-84.2750,0.0,22.7,2 
Scripps,ioos:station:wmo:42099:1,2014-01-06T11:22:00Z,27.3400,-84.2750,0.0,22.65,2 
Scripps,ioos:station:wmo:42099:1,2014-01-06T11:52:00Z,27.3400,-84.2750,0.0,22.65,2 
Scripps,ioos:station:wmo:42099:1,2014-01-06T12:22:00Z,27.3400,-84.2750,0.0,22.65,2 
Scripps,ioos:station:wmo:42099:1,2014-01-06T12:52:00Z,27.3400,-84.2750,0.0,22.65,2 
Scripps,ioos:station:wmo:42099:1,2014-01-06T13:22:00Z,27.3400,-84.2750,0.0,22.65,2 
Scripps,ioos:station:wmo:42099:1,2014-01-06T13:52:00Z,27.3400,-84.2750,0.0,22.65,2 
Scripps,ioos:station:wmo:42099:1,2014-01-06T14:22:00Z,27.3400,-84.2750,0.0,22.65,2 
Scripps,ioos:station:wmo:42099:1,2014-01-06T14:52:00Z,27.3400,-84.2750,0.0,22.6,2 
Scripps,ioos:station:wmo:42099:1,2014-01-06T15:22:00Z,27.3400,-84.2750,0.0,22.6,2 
Scripps,ioos:station:wmo:42099:1,2014-01-06T15:52:00Z,27.3400,-84.2750,0.0,22.6,2 
Scripps,ioos:station:wmo:42099:1,2014-01-06T18:22:00Z,27.3400,-84.2750,0.0,22.55,2 
Scripps,ioos:station:wmo:42099:1,2014-01-06T18:52:00Z,27.3400,-84.2750,0.0,22.55,2 
Scripps,ioos:station:wmo:42099:1,2014-01-06T19:22:00Z,27.3400,-84.2750,0.0,22.55,2 
Scripps,ioos:station:wmo:42099:1,2014-01-06T19:52:00Z,27.3400,-84.2750,0.0,22.5,2 
Scripps,ioos:station:wmo:42099:1,2014-01-06T20:22:00Z,27.3400,-84.2750,0.0,22.5,2 
Scripps,ioos:station:wmo:42099:1,2014-01-06T20:52:00Z,27.3400,-84.2750,0.0,22.5,2 
Scripps,ioos:station:wmo:42099:1,2014-01-06T21:22:00Z,27.3400,-84.2750,0.0,22.5,2 
Scripps,ioos:station:wmo:42099:1,2014-01-06T22:22:00Z,27.3400,-84.2750,0.0,22.5,2 
Scripps,ioos:station:wmo:42099:1,2014-01-06T23:22:00Z,27.3400,-84.2750,0.0,22.5,2 
Scripps,ioos:station:wmo:42099:1,2014-01-06T23:52:00Z,27.3400,-84.2750,0.0,22.5,2 
Scripps,ioos:station:wmo:42099:1,2014-01-07T00:22:00Z,27.3400,-84.2750,0.0,22.5,2 
Scripps,ioos:station:wmo:42099:1,2014-01-07T01:22:00Z,27.3400,-84.2750,0.0,22.45,2 
Scripps,ioos:station:wmo:42099:1,2014-01-07T01:52:00Z,27.3400,-84.2750,0.0,22.45,2 
Scripps,ioos:station:wmo:42099:1,2014-01-07T02:22:00Z,27.3400,-84.2750,0.0,22.45,2 
Scripps,ioos:station:wmo:42099:1,2014-01-07T02:52:00Z,27.3400,-84.2750,0.0,22.45,2 
Scripps,ioos:station:wmo:42099:1,2014-01-07T03:52:00Z,27.3400,-84.2750,0.0,22.45,2 
Scripps,ioos:station:wmo:42099:1,2014-01-07T04:22:00Z,27.3400,-84.2750,0.0,22.45,2 
Scripps,ioos:station:wmo:42099:1,2014-01-07T04:52:00Z,27.3400,-84.2750,0.0,22.4,2 
Scripps,ioos:station:wmo:42099:1,2014-01-07T05:22:00Z,27.3400,-84.2750,0.0,22.4,2 
Scripps,ioos:station:wmo:42099:1,2014-01-07T06:52:00Z,27.3400,-84.2750,0.0,22.4,2 
Scripps,ioos:station:wmo:42099:1,2014-01-07T07:22:00Z,27.3400,-84.2750,0.0,22.35,2 
Scripps,ioos:station:wmo:42099:1,2014-01-07T07:52:00Z,27.3400,-84.2750,0.0,22.35,2 
Scripps,ioos:station:wmo:42099:1,2014-01-07T09:22:00Z,27.3400,-84.2750,0.0,22.35,2 
Scripps,ioos:station:wmo:42099:1,2014-01-07T09:52:00Z,27.3400,-84.2750,0.0,22.3,2 
Scripps,ioos:station:wmo:42099:1,2014-01-07T10:22:00Z,27.3400,-84.2750,0.0,22.3,2 
Scripps,ioos:station:wmo:42099:1,2014-01-07T10:52:00Z,27.3400,-84.2750,0.0,22.3,2 
Scripps,ioos:station:wmo:42099:1,2014-01-07T11:22:00Z,27.3400,-84.2750,0.0,22.25,2 
Scripps,ioos:station:wmo:42099:1,2014-01-07T11:52:00Z,27.3400,-84.2750,0.0,22.25,2 
Scripps,ioos:station:wmo:42099:1,2014-01-07T12:22:00Z,27.3400,-84.2750,0.0,22.25,2 
Scripps,ioos:station:wmo:42099:1,2014-01-07T12:52:00Z,27.3400,-84.2750,0.0,22.2,2 
Scripps,ioos:station:wmo:42099:1,2014-01-07T13:22:00Z,27.3400,-84.2750,0.0,22.2,2 
Scripps,ioos:station:wmo:42099:1,2014-01-07T13:52:00Z,27.3400,-84.2750,0.0,22.2,2 
Scripps,ioos:station:wmo:42099:1,2014-01-07T14:22:00Z,27.3400,-84.2750,0.0,22.2,2 
Scripps,ioos:station:wmo:42099:1,2014-01-07T14:52:00Z,27.3400,-84.2750,0.0,22.2,2 
Scripps,ioos:station:wmo:42099:1,2014-01-07T15:22:00Z,27.3400,-84.2750,0.0,22.15,2 
Scripps,ioos:station:wmo:42099:1,2014-01-07T16:52:00Z,27.3400,-84.2750,0.0,22.15,2 
Scripps,ioos:station:wmo:42099:1,2014-01-07T17:22:00Z,27.3400,-84.2750,0.0,22.15,2 
Scripps,ioos:station:wmo:42099:1,2014-01-07T17:52:00Z,27.3400,-84.2750,0.0,22.1,2 
Scripps,ioos:station:wmo:42099:1,2014-01-07T18:22:00Z,27.3400,-84.2750,0.0,22.05,2 
Scripps,ioos:station:wmo:42099:1,2014-01-07T18:52:00Z,27.3400,-84.2750,0.0,22.0,2 
Scripps,ioos:station:wmo:42099:1,2014-01-07T19:22:00Z,27.3400,-84.2750,0.0,22.0,2 
Scripps,ioos:station:wmo:42099:1,2014-01-07T19:52:00Z,27.3400,-84.2750,0.0,21.95,2 